CW8440 Weather Reports


Display with metric or nautical units.
time (UTC)temp
F
wind
direction
speed
MPH
gust
MPH
rain 1hr
in
rain 24hr
in
rain mn
in
humidity
%
barometer
mb
20260505100321 44 214 1.0 4.0 0.00 0.00 0.00 90 1009.6
20260505095819 44 214 0.0 4.0 0.00 0.00 0.00 90 1009.6
20260505095320 43 214 0.0 0.0 0.00 0.00 0.00 89 1009.6
20260505095053 44 214 0.0 0.0 0.00 0.00 0.00 89 1009.5
20260505094321 44 214 0.0 0.0 0.00 0.00 0.00 88 1009.5
20260505093820 44 214 0.0 0.0 0.00 0.00 0.00 88 1009.5
20260505093321 44 214 0.0 0.0 0.00 0.00 0.00 88 1009.4
20260505092820 44 214 0.0 0.0 0.00 0.00 0.00 87 1009.4
20260505092320 44 214 0.0 1.0 0.00 0.00 0.00 87 1009.3
20260505091818 45 214 0.0 1.0 0.00 0.00 0.00 87 1009.3
20260505091318 45 214 0.0 2.0 0.00 0.00 0.00 87 1009.4
20260505090817 45 214 0.0 2.0 0.00 0.00 0.00 86 1009.5
20260505090319 46 214 0.0 2.0 0.00 0.00 0.00 86 1009.5
20260505085824 46 214 2.0 10.0 0.00 0.00 0.00 86 1009.4
20260505085817 46 214 1.0 10.0 0.00 0.00 0.00 86 1009.4
20260505084819 46 214 4.0 13.0 0.00 0.00 0.00 86 1009.3
20260505084315 46 248 5.0 13.0 0.00 0.00 0.00 86 1009.1
20260505083815 46 257 5.0 13.0 0.00 0.00 0.00 86 1009.1
20260505083316 46 281 6.0 13.0 0.00 0.00 0.00 86 1009.2
20260505082816 47 255 6.0 13.0 0.00 0.00 0.00 86 1009.1
20260505082315 46 267 6.0 13.0 0.00 0.00 0.00 86 1009.0
20260505081817 46 273 6.0 13.0 0.00 0.00 0.00 86 1009.0
20260505081313 46 236 6.0 13.0 0.00 0.00 0.00 86 1009.1
20260505080813 46 252 6.0 13.0 0.00 0.00 0.00 86 1009.0
20260505080311 46 232 6.0 13.0 0.00 0.00 0.00 86 1009.0
20260505080044 46 250 5.0 12.0 0.00 0.00 0.00 86 1009.0
20260505075310 46 247 5.0 12.0 0.00 0.00 0.00 86 1009.0
20260505075042 47 241 6.0 12.0 0.00 0.00 0.00 86 1009.1
20260505074310 47 248 6.0 12.0 0.00 0.00 0.00 85 1009.1
20260505074040 47 251 7.0 12.0 0.00 0.00 0.00 85 1009.1
20260505073309 47 260 7.0 12.0 0.00 0.00 0.00 85 1009.1
20260505072810 47 246 7.0 12.0 0.00 0.00 0.00 86 1009.1
20260505072305 47 257 7.0 12.0 0.00 0.00 0.00 86 1009.1
20260505071806 47 254 7.0 12.0 0.00 0.00 0.00 85 1009.0
20260505071305 47 250 6.0 12.0 0.00 0.00 0.00 85 1009.1
20260505070807 47 219 6.0 12.0 0.00 0.00 0.00 85 1009.0
20260505070303 46 244 6.0 12.0 0.00 0.00 0.00 85 1009.0
20260505065803 46 222 6.0 11.0 0.00 0.00 0.00 85 1009.1
20260505065304 46 244 6.0 10.0 0.00 0.00 0.00 85 1008.9
20260505064803 47 258 5.0 10.0 0.00 0.00 0.00 85 1009.0
20260505064536 47 246 5.0 12.0 0.00 0.00 0.00 84 1009.0
20260505063803 47 251 6.0 12.0 0.00 0.00 0.00 84 1009.1
20260505063304 47 231 6.0 12.0 0.00 0.00 0.00 84 1009.0
20260505062804 47 248 7.0 12.0 0.00 0.00 0.00 84 1009.1
20260505062536 47 244 6.0 10.0 0.00 0.00 0.00 84 1008.8
20260505061801 47 270 4.0 12.0 0.00 0.00 0.00 84 1008.9
20260505061303 47 211 4.0 12.0 0.00 0.00 0.00 83 1008.8
20260505060802 47 242 5.0 12.0 0.00 0.00 0.00 83 1008.8
20260505060301 47 269 5.0 12.0 0.00 0.00 0.00 83 1008.7
20260505055803 47 250 5.0 11.0 0.00 0.00 0.00 83 1008.8
20260505055301 47 243 5.0 10.0 0.00 0.00 0.00 83 1008.7
20260505055033 47 267 5.0 10.0 0.00 0.00 0.00 83 1008.7
20260505054300 47 252 5.0 10.0 0.00 0.00 0.00 83 1008.7
20260505053801 47 257 6.0 10.0 0.00 0.00 0.00 83 1008.6
20260505053309 47 267 5.0 10.0 0.00 0.00 0.00 83 1008.6
20260505053304 47 248 5.0 10.0 0.00 0.00 0.00 83 1008.6
20260505052300 47 263 4.0 10.0 0.00 0.00 0.00 83 1008.6
20260505051759 47 245 3.0 9.0 0.00 0.00 0.00 83 1008.6
20260505051301 47 247 2.0 7.0 0.00 0.00 0.00 83 1008.5
20260505050800 47 268 3.0 6.0 0.00 0.00 0.00 83 1008.4
20260505050300 47 227 3.0 6.0 0.00 0.00 0.00 82 1008.4
20260505041258 48 202 4.0 9.0 0.00 0.00 0.00 82 1008.5
20260505040757 48 229 4.0 10.0 0.00 0.00 0.00 82 1008.6
20260505040302 48 218 4.0 10.0 0.00 0.00 0.00 82 1008.5
20260505040256 48 248 5.0 11.0 0.00 0.00 0.00 82 1008.6
20260505035528 48 196 5.0 11.0 0.00 0.00 0.00 82 1008.6
20260505035024 48 246 5.0 11.0 0.00 0.00 0.00 83 1008.4
20260505034255 47 236 4.0 10.0 0.00 0.00 0.00 83 1008.5
20260505033753 47 293 4.0 10.0 0.00 0.00 0.00 84 1008.4
20260505033254 47 285 4.0 8.0 0.00 0.00 0.00 84 1008.3
20260505033026 47 204 3.0 8.0 0.00 0.00 0.00 85 1008.3
20260505032253 46 245 2.0 8.0 0.00 0.00 0.00 87 1008.3
20260505031754 45 261 1.0 8.0 0.00 0.00 0.00 88 1008.3
20260505031254 44 214 1.0 7.0 0.00 0.00 0.00 89 1008.4
20260505030752 43 250 0.0 7.0 0.00 0.00 0.00 88 1008.4
20260505030258 43 230 0.0 0.0 0.00 0.00 0.00 88 1008.4
20260505030252 43 229 0.0 0.0 0.00 0.00 0.00 88 1008.3
20260505025251 43 230 0.0 0.0 0.00 0.00 0.00 87 1008.3
20260505024750 44 230 0.0 0.0 0.00 0.00 0.00 87 1008.3
20260505024251 44 230 0.0 0.0 0.00 0.00 0.00 87 1008.4
20260505024021 44 229 0.0 0.0 0.00 0.00 0.00 86 1008.4
20260505023522 44 229 0.0 4.0 0.00 0.00 0.00 86 1008.2
20260505022753 44 229 0.0 4.0 0.00 0.00 0.00 86 1008.2
20260505022251 44 229 1.0 4.0 0.00 0.00 0.00 86 1008.2
20260505021751 44 229 1.0 4.0 0.00 0.00 0.00 86 1008.2
20260505021252 44 255 0.0 0.0 0.00 0.00 0.00 86 1008.2
20260505020750 44 255 0.0 0.0 0.00 0.00 0.00 86 1008.2
20260505020248 44 255 0.0 0.0 0.00 0.00 0.00 86 1008.3
20260505015748 44 255 0.0 0.0 0.00 0.00 0.00 85 1008.2
20260505015250 44 255 0.0 1.0 0.00 0.00 0.00 85 1008.2
20260505014750 44 255 0.0 1.0 0.00 0.00 0.00 85 1008.3
20260505014254 45 255 0.0 1.0 0.00 0.00 0.00 84 1008.1
20260505014249 45 255 0.0 1.0 0.00 0.00 0.00 85 1008.3
20260505013249 45 255 0.0 1.0 0.00 0.00 0.00 83 1008.2
20260505012749 46 255 0.0 3.0 0.00 0.00 0.00 83 1008.2
20260505012250 46 255 0.0 3.0 0.00 0.00 0.00 83 1008.3
20260505011746 46 255 1.0 3.0 0.00 0.00 0.00 82 1008.1
20260505011245 46 242 1.0 3.0 0.00 0.00 0.00 82 1008.0
20260505010746 46 242 0.0 3.0 0.00 0.00 0.00 81 1007.9
20260505010519 47 238 0.0 4.0 0.00 0.00 0.00 80 1007.9
20260505005746 47 238 0.0 4.0 0.00 0.00 0.00 80 1007.9
20260505005244 47 237 1.0 9.0 0.00 0.00 0.00 79 1007.7
20260505004746 47 238 2.0 9.0 0.00 0.00 0.00 80 1007.7
20260505004243 47 257 3.0 9.0 0.00 0.00 0.00 80 1007.6
20260505003742 47 250 3.0 9.0 0.00 0.00 0.00 80 1007.6
20260505003245 47 250 3.0 8.0 0.00 0.00 0.00 80 1007.5
20260505002741 47 200 4.0 8.0 0.00 0.00 0.00 80 1007.5
20260505002515 47 234 4.0 8.0 0.00 0.00 0.00 80 1007.5
20260505002012 47 227 4.0 8.0 0.00 0.00 0.00 80 1007.4
20260505001240 47 254 4.0 8.0 0.00 0.00 0.00 80 1007.3
20260505000741 47 224 3.0 8.0 0.00 0.00 0.00 81 1007.3
20260505000243 47 223 3.0 9.0 0.00 0.00 0.00 81 1007.2
20260504235738 47 211 5.0 9.0 0.00 0.00 0.00 81 1007.1
20260504235240 47 203 5.0 9.0 0.00 0.00 0.00 82 1007.1
20260504234739 46 193 4.0 9.0 0.00 0.00 0.00 83 1007.0
20260504234240 46 188 3.0 6.0 0.00 0.00 0.00 83 1007.0
20260504233738 46 200 2.0 4.0 0.00 0.00 0.00 82 1006.9
20260504232739 47 175 1.0 5.0 0.00 0.00 0.00 80 1006.5
20260504232240 47 165 1.0 4.0 0.00 0.00 0.00 79 1006.6
20260504231740 48 186 2.0 10.0 0.00 0.00 0.00 77 1006.5
20260504231241 49 202 2.0 10.0 0.00 0.00 0.00 75 1006.5
20260504230739 50 186 2.0 11.0 0.00 0.00 0.00 74 1006.4
20260504230239 52 174 3.0 11.0 0.00 0.00 0.00 72 1006.3
20260504225738 53 214 3.0 6.0 0.00 0.00 0.00 71 1006.1
20260504224738 53 210 3.0 6.0 0.00 0.00 0.00 71 1006.1
20260504224240 53 213 3.0 6.0 0.00 0.00 0.00 71 1006.1
20260504223740 53 199 3.0 8.0 0.00 0.00 0.00 71 1006.0
20260504223239 53 223 2.0 8.0 0.00 0.00 0.00 70 1006.1
20260504222741 54 230 3.0 8.0 0.00 0.00 0.00 68 1006.1
20260504222509 54 215 4.0 8.0 0.00 0.00 0.00 66 1006.0
20260504221739 55 225 3.0 8.0 0.00 0.00 0.00 65 1006.0
20260504221240 55 239 3.0 8.0 0.00 0.00 0.00 65 1006.0
20260504220739 55 248 4.0 9.0 0.00 0.00 0.00 64 1005.8
20260504220510 55 191 3.0 9.0 0.00 0.00 0.00 65 1005.8
20260504220010 56 206 4.0 11.0 0.00 0.00 0.00 64 1005.7
20260504215240 56 249 4.0 11.0 0.00 0.00 0.00 64 1005.7
20260504214740 56 244 5.0 11.0 0.00 0.00 0.00 63 1005.6
20260504214238 56 245 6.0 11.0 0.00 0.00 0.00 63 1005.6
20260504214012 56 269 6.0 13.0 0.00 0.00 0.00 63 1005.7
20260504213509 56 270 7.0 13.0 0.00 0.00 0.00 63 1005.7
20260504212739 56 250 7.0 13.0 0.00 0.00 0.00 63 1005.8
20260504212239 56 215 6.0 13.0 0.00 0.00 0.00 62 1005.7
20260504211739 56 228 6.0 12.0 0.00 0.00 0.00 62 1005.8
20260504211510 56 252 6.0 11.0 0.00 0.00 0.00 62 1005.7
20260504210740 56 207 6.0 11.0 0.00 0.00 0.00 62 1005.6
20260504210239 56 263 6.0 16.0 0.00 0.00 0.00 63 1005.8
20260504205738 56 259 7.0 16.0 0.00 0.00 0.00 61 1005.7
20260504205240 56 268 8.0 16.0 0.00 0.00 0.00 61 1005.6
20260504204739 56 247 8.0 16.0 0.00 0.00 0.00 60 1005.5
20260504204239 56 271 8.0 17.0 0.00 0.00 0.00 60 1005.5
20260504203737 56 209 8.0 17.0 0.00 0.00 0.00 59 1005.5
20260504203236 56 275 7.0 14.0 0.00 0.01 0.00 59 1005.5
20260504203008 57 293 6.0 14.0 0.00 0.01 0.00 59 1005.4
20260504202234 57 235 5.0 14.0 0.00 0.01 0.00 61 1005.4
20260504201736 57 225 6.0 14.0 0.00 0.01 0.00 61 1005.4
20260504201236 56 234 6.0 14.0 0.00 0.01 0.00 60 1005.5
20260504200734 56 267 7.0 13.0 0.00 0.02 0.00 62 1005.4
20260504200236 55 261 7.0 13.0 0.00 0.02 0.00 63 1005.5
20260504200006 55 234 6.0 12.0 0.00 0.02 0.00 63 1005.5
20260504195234 55 251 6.0 13.0 0.00 0.02 0.00 66 1005.5
20260504194737 55 206 6.0 13.0 0.00 0.02 0.00 66 1005.5
20260504194234 55 252 5.0 10.0 0.00 0.02 0.00 65 1005.5
20260504193734 55 224 5.0 10.0 0.00 0.02 0.00 65 1005.5
20260504193233 54 270 4.0 9.0 0.00 0.02 0.00 68 1005.4
20260504192739 52 271 4.0 10.0 0.00 0.02 0.00 69 1005.7
20260504192734 53 243 5.0 10.0 0.00 0.02 0.00 68 1005.5
20260504192003 52 232 4.0 10.0 0.00 0.02 0.00 72 1005.9
20260504191505 51 254 5.0 10.0 0.00 0.02 0.00 72 1005.9
20260504190732 51 258 4.0 9.0 0.00 0.02 0.00 73 1006.0
20260504190233 50 267 5.0 9.0 0.00 0.02 0.00 73 1006.1
20260504185733 50 210 5.0 13.0 0.00 0.02 0.00 73 1006.1
20260504185505 50 242 6.0 13.0 0.00 0.03 0.00 72 1006.3
20260504184733 50 246 7.0 15.0 0.00 0.03 0.00 71 1006.2
20260504184230 50 280 8.0 15.0 0.00 0.03 0.00 71 1006.2
20260504183732 51 286 7.0 14.0 0.00 0.03 0.00 69 1006.2
20260504183231 51 249 7.0 14.0 0.00 0.03 0.00 69 1006.1
20260504182730 51 244 8.0 15.0 0.00 0.04 0.00 67 1006.1
20260504182231 51 249 8.0 15.0 0.00 0.04 0.00 67 1006.0
20260504181730 51 251 7.0 15.0 0.00 0.05 0.00 68 1006.0
20260504181501 51 248 7.0 15.0 0.00 0.05 0.00 69 1006.0
20260504180730 51 271 6.0 13.0 0.00 0.06 0.00 69 1005.9
20260504180231 51 240 5.0 13.0 0.00 0.07 0.00 69 1005.8
20260504175730 51 218 5.0 16.0 0.00 0.07 0.00 70 1005.7
20260504175228 51 245 6.0 16.0 0.00 0.08 0.00 70 1005.8
20260504174728 51 276 7.0 16.0 0.00 0.09 0.00 69 1005.9
20260504174229 52 253 7.0 16.0 0.00 0.10 0.00 68 1005.8
20260504173728 52 240 7.0 14.0 0.00 0.11 0.00 66 1005.9
20260504173459 53 244 6.0 14.0 0.00 0.12 0.00 67 1005.8
20260504172733 53 194 7.0 19.0 0.00 0.13 0.00 66 1005.7
20260504172729 53 203 7.0 14.0 0.00 0.13 0.00 68 1005.7
20260504171728 54 223 8.0 19.0 0.00 0.13 0.00 65 1005.7
20260504171226 53 230 8.0 20.0 0.00 0.14 0.00 68 1005.7
20260504170727 53 174 9.0 20.0 0.00 0.15 0.00 67 1005.5
20260504170227 53 248 8.0 17.0 0.00 0.15 0.00 69 1005.5
20260504160224 53 240 7.0 19.0 0.00 0.22 0.00 63 1005.8
20260504150724 52 222 8.0 13.0 0.00 0.30 0.00 66 1006.7
20260504150453 52 222 9.0 14.0 0.00 0.31 0.00 65 1006.9
20260504140721 50 246 9.0 17.0 0.00 0.40 0.00 65 1007.4
20260504140220 50 231 7.0 15.0 0.00 0.40 0.00 66 1007.3
20260504130717 47 284 4.0 9.0 0.00 0.47 0.00 68 1007.5
20260504130216 47 218 4.0 11.0 0.00 0.48 0.00 69 1007.4
20260504120217 45 267 5.0 14.0 0.00 0.54 0.00 72 1007.8
20260504110715 42 256 3.0 8.0 0.00 0.65 0.00 81 1007.7
20260504110217 42 240 3.0 7.0 0.00 0.65 0.00 82 1007.7
20260504100445 37 245 2.0 4.0 0.00 0.76 0.00 87 1007.1